[[{"header":{"parameterUnit":"m.s-1","parameterCategory":1,"la1":30.2992,"la2":30.254,"lo1":-89.0895,"lo2":-89.0443,"dy":0.0025,"dx":0.0025,"nx":19,"ny":19,"refTime":"2026-03-16T03:00:00:Z","depth":0,"parameterNumber":2,"parameterNumberName":"U-component_of_WINDS"},"data":[0,0,0,4.6577,4.6576,4.6518,4.6518,4.6444,4.6443,0,0,0,0,0,0,0,0,0,0,0,4.6596,4.6596,4.6577,4.6576,4.6518,4.6518,4.6444,4.6443,0,0,0,0,0,0,0,0,0,0,0,4.6597,4.6596,4.6596,4.6576,4.6518,4.6518,4.6444,4.6487,0,0,0,0,0,0,0,0,0,0,4.6543,4.6563,4.6596,4.6596,4.6576,4.6519,4.6518,4.6489,4.6484,4.6471,0,4.6461,0,4.6452,4.6438,4.6438,0,0,0,4.6573,4.6567,4.655,4.6596,4.6575,4.6519,4.6544,4.6486,4.6481,4.6464,4.646,4.6457,4.645,4.6438,4.6437,4.6379,4.6379,0,0,4.6576,4.6586,4.6554,4.6547,4.6559,4.6545,4.6542,4.6483,4.6478,4.646,4.6456,4.6449,4.6437,4.6437,4.6379,4.6379,0,0,0,4.6587,4.6588,4.6573,4.655,4.654,4.6544,4.654,4.648,4.6475,4.6455,4.6448,4.6437,4.6436,4.6379,4.6379,4.6384,0,0,0,4.6589,4.6595,4.6574,4.658,4.6542,4.651,4.6538,4.6479,4.6472,4.6449,4.6437,4.6435,4.6379,4.6379,4.6384,4.6383,0,0,0,4.6599,4.6596,4.6589,4.658,4.6557,4.6511,4.6502,4.6477,4.6468,4.6438,4.6435,4.6379,4.6379,4.6384,4.6383,4.6372,0,0,0,4.6611,4.6589,4.6589,4.6562,4.6557,4.6516,4.6502,4.647,4.6444,4.6437,4.6379,4.6379,4.6384,4.6383,4.6372,4.6364,4.6362,0,0,4.6589,4.6587,4.6571,4.6569,4.6531,4.6524,4.6486,4.645,4.6436,4.6398,4.6397,4.6384,4.6383,4.6372,4.6349,4.6347,0,0,0,4.6567,4.6555,4.6543,4.6523,4.65,4.648,4.6451,4.644,4.6408,4.642,4.6377,4.6376,4.6369,4.6365,4.6363,4.6357,4.6378,4.6378,4.6378,4.6544,4.6534,4.6507,4.6491,4.6471,4.6446,4.6429,4.6408,4.6397,4.6388,4.6375,4.6363,4.6359,4.6357,4.6351,4.6371,4.6371,4.6371,4.6371,4.6509,4.6491,4.6487,4.6459,4.6448,4.6423,4.64,4.6395,4.6369,4.637,4.6363,4.6364,4.6356,4.635,4.6372,4.6372,4.6372,4.6372,4.6371,4.6492,4.6482,4.6473,4.6447,4.6428,4.6412,4.639,4.638,4.6368,4.6362,4.6349,4.6349,4.6348,4.6358,4.6358,4.6358,4.6358,4.6358,4.6358,4.6477,4.6467,4.6452,4.6432,4.6421,4.6404,4.6384,4.6371,4.6354,4.6348,4.6348,4.634,4.6359,4.6364,4.6357,4.6357,4.6357,4.6357,4.6357,4.6442,4.6451,4.6427,4.6417,4.6395,4.6379,4.6369,4.6346,4.6334,4.6325,4.6321,4.6337,4.6332,4.6333,4.6337,4.6323,4.6323,4.6323,4.6323,4.6426,4.6427,4.6403,4.6388,4.6372,4.6363,4.6338,4.6324,4.6309,4.6302,4.6303,4.6308,4.631,4.6304,4.6305,4.6308,4.6288,4.6288,4.6288,4.6405,4.6404,4.6384,4.6376,4.636,4.6346,4.6323,4.6304,4.629,4.6286,4.6296,4.6297,4.6305,4.6308,4.63,4.6303,4.6308,0,0]},{"header":{"parameterUnit":"m.s-1","parameterCategory":1,"la1":30.2992,"la2":30.254,"lo1":-89.0895,"lo2":-89.0443,"dy":0.0025,"dx":0.0025,"nx":19,"ny":19,"refTime":"2026-03-16T03:00:00:Z","depth":0,"parameterNumber":3,"parameterNumberName":"V-component_of_WINDS"},"data":[0,0,0,3.4422,3.4443,3.5505,3.5509,3.6799,3.681,0,0,0,0,0,0,0,0,0,0,0,3.4068,3.4075,3.442,3.4446,3.5504,3.5509,3.6797,3.681,0,0,0,0,0,0,0,0,0,0,0,3.4065,3.4073,3.4083,3.4449,3.5503,3.551,3.6794,3.6018,0,0,0,0,0,0,0,0,0,0,3.5,3.4635,3.4071,3.4083,3.4455,3.5502,3.551,3.5982,3.6067,3.629,0,3.6477,0,3.6662,3.6892,3.6896,0,0,0,3.4478,3.4564,3.4885,3.4084,3.4465,3.55,3.5036,3.603,3.6126,3.6401,3.6496,3.6546,3.6684,3.69,3.6906,3.8074,3.8078,0,0,3.4419,3.4239,3.4818,3.4944,3.4775,3.5001,3.5068,3.6089,3.6181,3.6501,3.6577,3.6705,3.6908,3.6917,3.8071,3.8075,0,0,0,3.4229,3.4197,3.4494,3.489,3.5085,3.5031,3.5108,3.6136,3.6248,3.6592,3.672,3.6915,3.693,3.8067,3.8072,3.8091,0,0,0,3.4196,3.4087,3.4467,3.4367,3.5065,3.5624,3.513,3.6177,3.6298,3.6714,3.6915,3.6942,3.8063,3.807,3.8081,3.8133,0,0,0,3.4013,3.4066,3.4204,3.4356,3.4804,3.5612,3.5784,3.6207,3.6375,3.6897,3.6945,3.806,3.8069,3.8073,3.8119,3.8384,0,0,0,3.3768,3.4214,3.4201,3.4749,3.4794,3.5612,3.5779,3.64,3.6849,3.6921,3.8063,3.8072,3.807,3.8111,3.8373,3.8575,3.8641,0,0,3.4231,3.4263,3.4599,3.4619,3.5392,3.5465,3.6244,3.6831,3.7048,3.7719,3.7751,3.8084,3.8119,3.8381,3.9073,3.9123,0,0,0,3.4685,3.4923,3.5167,3.5582,3.6033,3.6423,3.6906,3.7121,3.7698,3.7355,3.8257,3.8283,3.8444,3.8549,3.8593,3.8742,3.8112,3.8111,3.811,3.509,3.5332,3.5901,3.6269,3.6668,3.7153,3.7499,3.7871,3.8011,3.8216,3.8421,3.8809,3.8924,3.8959,3.911,3.8545,3.8545,3.8545,3.8545,3.579,3.6165,3.6321,3.693,3.7182,3.7697,3.8176,3.8253,3.8769,3.868,3.8835,3.8718,3.9007,3.9153,3.8549,3.8548,3.8548,3.8548,3.8547,3.6084,3.6305,3.655,3.7165,3.7611,3.7967,3.8449,3.8665,3.8872,3.9024,3.9259,3.9259,3.9286,3.9119,3.9121,3.9122,3.9123,3.9124,3.9125,3.6292,3.6568,3.6947,3.745,3.7737,3.8143,3.8622,3.8913,3.9289,3.9408,3.9411,3.9523,3.8988,3.8849,3.9147,3.9143,3.9141,3.9138,3.9137,3.6918,3.6806,3.7391,3.7677,3.8279,3.8702,3.8964,3.9532,3.9803,4.0031,4.0108,3.9676,3.9728,3.9695,3.9582,4.0054,4.0054,4.0054,4.0054,3.7166,3.7208,3.7848,3.8289,3.8747,3.9037,3.9685,4.0056,4.0425,4.0606,4.0567,4.0434,4.039,4.0469,4.0419,4.0317,4.0965,4.0966,4.0967,3.7563,3.7656,3.8169,3.852,3.9002,3.941,4.0024,4.0524,4.0919,4.1009,4.0751,4.0713,4.05,4.0419,4.051,4.0428,4.0246,0,0]}]]